Time,TemperatureF,DewpointF,PressureIn,WindDirection,WindDirectionDegrees,WindSpeedMPH,WindSpeedGustMPH,Humidity,HourlyPrecipIn,Conditions,Clouds,dailyrainin,SoftwareType,DateUTC
2013-03-04 00:00:00,37.4,26.0,29.92,NNW,333,4.0,7.0,63,0.00,,---,0.00,VWS V14.01,2013-03-04 05:00:00,
2013-03-04 00:05:00,37.3,25.5,29.92,NNW,339,6.0,13.0,62,0.00,,---,0.00,VWS V14.01,2013-03-04 05:05:00,
2013-03-04 00:10:00,37.3,25.5,29.92,NNW,338,6.0,11.0,62,0.00,,---,0.00,VWS V14.01,2013-03-04 05:10:00,
2013-03-04 00:15:00,37.1,25.3,29.92,North,351,9.0,17.0,62,0.00,,---,0.00,VWS V14.01,2013-03-04 05:15:00,
2013-03-04 00:20:00,37.1,25.3,29.93,NW,320,12.0,12.0,62,0.00,,---,0.00,VWS V14.01,2013-03-04 05:20:00,
2013-03-04 00:25:00,37.0,25.2,29.93,NNW,336,11.0,11.0,62,0.00,,---,0.00,VWS V14.01,2013-03-04 05:25:00,
2013-03-04 00:30:00,36.9,25.1,29.93,NNW,333,12.0,12.0,62,0.00,,---,0.00,VWS V14.01,2013-03-04 05:30:00,
2013-03-04 00:35:00,36.8,25.0,29.93,NW,326,8.0,11.0,62,0.00,,---,0.00,VWS V14.01,2013-03-04 05:35:00,
2013-03-04 00:40:00,36.8,24.6,29.93,NW,317,7.0,11.0,61,0.00,,---,0.00,VWS V14.01,2013-03-04 05:40:00,
2013-03-04 00:45:00,36.8,23.8,29.93,NNW,340,6.0,15.0,59,0.00,,---,0.00,VWS V14.01,2013-03-04 05:45:00,
2013-03-04 00:50:00,36.7,23.3,29.93,North,360,12.0,18.0,58,0.00,,---,0.00,VWS V14.01,2013-03-04 05:50:00,
2013-03-04 00:55:00,36.6,22.8,29.93,North,360,10.0,14.0,57,0.00,,---,0.00,VWS V14.01,2013-03-04 05:55:00,
2013-03-04 01:00:00,36.4,22.6,29.93,NW,317,13.0,14.0,57,0.00,,---,0.00,VWS V14.01,2013-03-04 06:00:00,
2013-03-04 01:05:00,36.3,22.5,29.93,WNW,303,12.0,12.0,57,0.00,,---,0.00,VWS V14.01,2013-03-04 06:05:00,
2013-03-04 01:10:00,36.2,22.5,29.93,NNW,340,13.0,15.0,57,0.00,,---,0.00,VWS V14.01,2013-03-04 06:10:00,
2013-03-04 01:15:00,36.1,22.4,29.93,North,350,4.0,11.0,57,0.00,,---,0.00,VWS V14.01,2013-03-04 06:15:00,
2013-03-04 01:20:00,35.9,22.2,29.93,NW,323,8.0,10.0,57,0.00,,---,0.00,VWS V14.01,2013-03-04 06:20:00,
2013-03-04 01:25:00,35.8,21.6,29.93,NNW,342,8.0,14.0,56,0.00,,---,0.00,VWS V14.01,2013-03-04 06:25:00,
2013-03-04 01:30:00,35.7,21.6,29.93,NNW,340,5.0,15.0,56,0.00,,---,0.00,VWS V14.01,2013-03-04 06:30:00,
2013-03-04 01:35:00,35.6,21.5,29.93,NNW,339,8.0,12.0,56,0.00,,---,0.00,VWS V14.01,2013-03-04 06:35:00,
2013-03-04 01:40:00,35.5,21.4,29.93,NNW,334,4.0,11.0,56,0.00,,---,0.00,VWS V14.01,2013-03-04 06:40:00,
2013-03-04 01:45:00,35.4,20.9,29.93,North,355,12.0,13.0,55,0.00,,---,0.00,VWS V14.01,2013-03-04 06:45:00,
2013-03-04 01:50:00,35.3,21.2,29.93,North,360,9.0,12.0,56,0.00,,---,0.00,VWS V14.01,2013-03-04 06:50:00,
2013-03-04 01:55:00,35.2,21.1,29.93,NW,321,10.0,10.0,56,0.00,,---,0.00,VWS V14.01,2013-03-04 06:55:00,
2013-03-04 02:00:00,35.1,21.0,29.93,NW,325,3.0,7.0,56,0.00,,---,0.00,VWS V14.01,2013-03-04 07:00:00,
2013-03-04 02:05:00,35.0,21.3,29.92,NW,325,10.0,14.0,57,0.00,,---,0.00,VWS V14.01,2013-03-04 07:05:00,
2013-03-04 02:10:00,35.0,21.3,29.93,North,355,5.0,17.0,57,0.00,,---,0.00,VWS V14.01,2013-03-04 07:10:00,
2013-03-04 02:15:00,34.9,21.6,29.93,NW,311,6.0,14.0,58,0.00,,---,0.00,VWS V14.01,2013-03-04 07:15:00,
2013-03-04 02:20:00,34.8,22.0,29.93,NW,310,14.0,14.0,59,0.00,,---,0.00,VWS V14.01,2013-03-04 07:20:00,
2013-03-04 02:25:00,34.7,21.9,29.93,NNW,334,11.0,13.0,59,0.00,,---,0.00,VWS V14.01,2013-03-04 07:25:00,
2013-03-04 02:30:00,34.6,22.2,29.93,NW,323,10.0,13.0,60,0.00,,---,0.00,VWS V14.01,2013-03-04 07:30:00,
2013-03-04 02:35:00,34.5,22.1,29.93,NNE,14,4.0,13.0,60,0.00,,---,0.00,VWS V14.01,2013-03-04 07:35:00,
2013-03-04 02:40:00,34.4,21.6,29.93,North,5,8.0,15.0,59,0.00,,---,0.00,VWS V14.01,2013-03-04 07:40:00,
2013-03-04 02:45:00,34.3,21.5,29.93,NNE,24,6.0,15.0,59,0.00,,---,0.00,VWS V14.01,2013-03-04 07:45:00,
2013-03-04 02:50:00,34.3,21.9,29.93,NW,319,5.0,10.0,60,0.00,,---,0.00,VWS V14.01,2013-03-04 07:50:00,
2013-03-04 02:55:00,34.2,21.8,29.93,NNW,333,6.0,12.0,60,0.00,,---,0.00,VWS V14.01,2013-03-04 07:55:00,
2013-03-04 03:00:00,34.1,22.1,29.93,NW,316,7.0,11.0,61,0.00,,---,0.00,VWS V14.01,2013-03-04 08:00:00,
2013-03-04 03:05:00,34.0,21.6,29.94,NW,318,10.0,12.0,60,0.00,,---,0.00,VWS V14.01,2013-03-04 08:05:00,
2013-03-04 03:10:00,33.9,21.5,29.93,NNW,332,9.0,13.0,60,0.00,,---,0.00,VWS V14.01,2013-03-04 08:10:00,
2013-03-04 03:15:00,33.8,21.4,29.93,North,360,10.0,14.0,60,0.00,,---,0.00,VWS V14.01,2013-03-04 08:15:00,
2013-03-04 03:20:00,33.7,21.3,29.94,NW,315,14.0,15.0,60,0.00,,---,0.00,VWS V14.01,2013-03-04 08:20:00,
2013-03-04 03:25:00,33.7,21.3,29.94,NW,309,10.0,13.0,60,0.00,,---,0.00,VWS V14.01,2013-03-04 08:25:00,
2013-03-04 03:30:00,33.5,21.1,29.94,NNW,332,15.0,15.0,60,0.00,,---,0.00,VWS V14.01,2013-03-04 08:30:00,
2013-03-04 03:35:00,33.4,21.0,29.94,NNW,331,11.0,16.0,60,0.00,,---,0.00,VWS V14.01,2013-03-04 08:35:00,
2013-03-04 03:40:00,33.4,21.4,29.94,NNW,346,8.0,16.0,61,0.00,,---,0.00,VWS V14.01,2013-03-04 08:40:00,
2013-03-04 03:45:00,33.3,21.3,29.94,NW,323,8.0,14.0,61,0.00,,---,0.00,VWS V14.01,2013-03-04 08:45:00,
2013-03-04 03:50:00,33.1,21.5,29.94,NW,320,10.0,11.0,62,0.00,,---,0.00,VWS V14.01,2013-03-04 08:50:00,
2013-03-04 03:55:00,33.0,21.4,29.94,NNW,327,8.0,11.0,62,0.00,,---,0.00,VWS V14.01,2013-03-04 08:55:00,
2013-03-04 04:00:00,32.9,21.3,29.95,NW,316,11.0,12.0,62,0.00,,---,0.00,VWS V14.01,2013-03-04 09:00:00,
2013-03-04 04:05:00,32.9,21.3,29.95,NW,322,11.0,11.0,62,0.00,,---,0.00,VWS V14.01,2013-03-04 09:05:00,
2013-03-04 04:10:00,32.8,21.2,29.95,NNW,331,5.0,11.0,62,0.00,,---,0.00,VWS V14.01,2013-03-04 09:10:00,
2013-03-04 04:15:00,32.7,21.1,29.95,NNW,328,10.0,13.0,62,0.00,,---,0.00,VWS V14.01,2013-03-04 09:15:00,
2013-03-04 04:20:00,32.7,21.1,29.95,NW,310,11.0,15.0,62,0.00,,---,0.00,VWS V14.01,2013-03-04 09:20:00,
2013-03-04 04:25:00,32.6,21.4,29.95,NW,324,5.0,12.0,63,0.00,,---,0.00,VWS V14.01,2013-03-04 09:25:00,
2013-03-04 04:30:00,32.6,21.0,29.95,NW,323,13.0,17.0,62,0.00,,---,0.00,VWS V14.01,2013-03-04 09:30:00,
2013-03-04 04:35:00,32.5,21.3,29.96,WNW,301,9.0,13.0,63,0.00,,---,0.00,VWS V14.01,2013-03-04 09:35:00,
2013-03-04 04:40:00,32.4,21.2,29.96,NW,313,11.0,13.0,63,0.00,,---,0.00,VWS V14.01,2013-03-04 09:40:00,
2013-03-04 04:45:00,32.4,21.2,29.96,WNW,300,11.0,15.0,63,0.00,,---,0.00,VWS V14.01,2013-03-04 09:45:00,
2013-03-04 04:50:00,32.4,20.9,29.96,NW,325,6.0,13.0,62,0.00,,---,0.00,VWS V14.01,2013-03-04 09:50:00,
2013-03-04 04:55:00,32.3,20.8,29.96,NW,307,9.0,15.0,62,0.00,,---,0.00,VWS V14.01,2013-03-04 09:55:00,
2013-03-04 05:00:00,32.3,21.1,29.97,NW,322,15.0,16.0,63,0.00,,---,0.00,VWS V14.01,2013-03-04 10:00:00,
2013-03-04 05:05:00,32.2,21.0,29.97,NNW,330,9.0,12.0,63,0.00,,---,0.00,VWS V14.01,2013-03-04 10:05:00,
2013-03-04 05:10:00,32.1,20.6,29.97,WNW,296,12.0,14.0,62,0.00,,---,0.00,VWS V14.01,2013-03-04 10:10:00,
2013-03-04 05:15:00,32.0,20.9,29.97,NNW,331,10.0,15.0,63,0.00,,---,0.00,VWS V14.01,2013-03-04 10:15:00,
2013-03-04 05:20:00,31.9,20.4,29.97,NW,325,9.0,16.0,62,0.00,,---,0.00,VWS V14.01,2013-03-04 10:20:00,
2013-03-04 05:25:00,31.9,20.4,29.97,WNW,290,8.0,16.0,62,0.00,,---,0.00,VWS V14.01,2013-03-04 10:25:00,
2013-03-04 05:30:00,31.8,20.7,29.97,WNW,302,5.0,13.0,63,0.00,,---,0.00,VWS V14.01,2013-03-04 10:30:00,
2013-03-04 05:35:00,31.6,20.5,29.98,NW,317,7.0,11.0,63,0.00,,---,0.00,VWS V14.01,2013-03-04 10:35:00,
2013-03-04 05:40:00,31.6,20.8,29.98,NW,314,5.0,13.0,64,0.00,,---,0.00,VWS V14.01,2013-03-04 10:40:00,
2013-03-04 05:45:00,31.5,20.7,29.98,WNW,303,5.0,9.0,64,0.00,,---,0.00,VWS V14.01,2013-03-04 10:45:00,
2013-03-04 05:50:00,31.5,20.7,29.98,NNW,333,9.0,19.0,64,0.00,,---,0.00,VWS V14.01,2013-03-04 10:50:00,
2013-03-04 05:55:00,31.5,20.7,29.98,WNW,300,7.0,13.0,64,0.00,,---,0.00,VWS V14.01,2013-03-04 10:55:00,
2013-03-04 06:00:00,31.4,20.3,29.99,NW,325,8.0,12.0,63,0.00,,---,0.00,VWS V14.01,2013-03-04 11:00:00,
2013-03-04 06:05:00,31.3,20.2,29.99,NW,306,10.0,16.0,63,0.00,,---,0.00,VWS V14.01,2013-03-04 11:05:00,
2013-03-04 06:10:00,31.2,20.1,29.99,NNW,329,10.0,14.0,63,0.00,,---,0.00,VWS V14.01,2013-03-04 11:10:00,
2013-03-04 06:15:00,31.1,20.0,29.99,NW,326,6.0,15.0,63,0.00,,---,0.00,VWS V14.01,2013-03-04 11:15:00,
2013-03-04 06:20:00,31.0,19.9,29.99,NW,326,8.0,12.0,63,0.00,,---,0.00,VWS V14.01,2013-03-04 11:20:00,
2013-03-04 06:25:00,31.0,20.3,30.00,NNW,327,7.0,16.0,64,0.00,,---,0.00,VWS V14.01,2013-03-04 11:25:00,
2013-03-04 06:30:00,30.9,20.2,30.00,NNW,333,12.0,12.0,64,0.00,,---,0.00,VWS V14.01,2013-03-04 11:30:00,
2013-03-04 06:35:00,30.9,20.2,30.00,NW,325,12.0,12.0,64,0.00,,---,0.00,VWS V14.01,2013-03-04 11:35:00,
2013-03-04 06:40:00,30.9,20.5,30.00,WNW,302,10.0,14.0,65,0.00,,---,0.00,VWS V14.01,2013-03-04 11:40:00,
2013-03-04 06:45:00,31.0,20.6,30.00,WNW,299,8.0,12.0,65,0.00,,---,0.00,VWS V14.01,2013-03-04 11:45:00,
2013-03-04 06:50:00,31.1,20.4,30.01,NW,306,7.0,13.0,64,0.00,,---,0.00,VWS V14.01,2013-03-04 11:50:00,
2013-03-04 06:55:00,31.3,20.2,30.01,NW,321,12.0,14.0,63,0.00,,---,0.00,VWS V14.01,2013-03-04 11:55:00,
2013-03-04 07:00:00,31.3,20.2,30.02,WNW,298,12.0,14.0,63,0.00,,---,0.00,VWS V14.01,2013-03-04 12:00:00,
2013-03-04 07:05:00,31.4,20.3,30.02,NW,321,7.0,13.0,63,0.00,,---,0.00,VWS V14.01,2013-03-04 12:05:00,
2013-03-04 07:10:00,31.5,20.0,30.02,NW,316,10.0,14.0,62,0.00,,---,0.00,VWS V14.01,2013-03-04 12:10:00,
2013-03-04 07:15:00,31.5,20.0,30.02,NW,323,14.0,17.0,62,0.00,,---,0.00,VWS V14.01,2013-03-04 12:15:00,
2013-03-04 07:20:00,31.6,20.1,30.03,NW,314,9.0,18.0,62,0.00,,---,0.00,VWS V14.01,2013-03-04 12:20:00,
2013-03-04 07:24:00,31.7,20.2,30.03,NW,313,12.0,15.0,62,0.00,,---,0.00,VWS V14.01,2013-03-04 12:24:00,
2013-03-04 07:29:00,31.8,20.3,30.03,NW,311,10.0,17.0,62,0.00,,---,0.00,VWS V14.01,2013-03-04 12:29:00,
2013-03-04 07:34:00,31.9,20.4,30.03,North,349,7.0,14.0,62,0.00,,---,0.00,VWS V14.01,2013-03-04 12:34:00,
2013-03-04 07:39:00,32.0,20.1,30.03,NNW,327,7.0,15.0,61,0.00,,---,0.00,VWS V14.01,2013-03-04 12:39:00,
2013-03-04 07:44:00,32.2,20.7,30.03,NNW,338,10.0,13.0,62,0.00,,---,0.00,VWS V14.01,2013-03-04 12:44:00,
2013-03-04 07:49:00,32.3,20.4,30.03,NW,310,6.0,15.0,61,0.00,,---,0.00,VWS V14.01,2013-03-04 12:49:00,
2013-03-04 07:54:00,32.5,20.2,30.04,NNW,329,8.0,12.0,60,0.00,,---,0.00,VWS V14.01,2013-03-04 12:54:00,
2013-03-04 07:59:00,32.4,19.7,30.04,NW,316,9.0,19.0,59,0.00,,---,0.00,VWS V14.01,2013-03-04 12:59:00,
2013-03-04 08:04:00,32.4,19.7,30.04,WNW,302,8.0,18.0,59,0.00,,---,0.00,VWS V14.01,2013-03-04 13:04:00,
2013-03-04 08:09:00,32.6,19.9,30.04,NW,311,12.0,14.0,59,0.00,,---,0.00,VWS V14.01,2013-03-04 13:09:00,
2013-03-04 08:14:00,32.6,19.9,30.05,NNW,330,8.0,15.0,59,0.00,,---,0.00,VWS V14.01,2013-03-04 13:14:00,
2013-03-04 08:19:00,32.7,20.0,30.05,NW,312,12.0,18.0,59,0.00,,---,0.00,VWS V14.01,2013-03-04 13:19:00,
2013-03-04 08:24:00,32.8,20.1,30.05,NW,311,12.0,14.0,59,0.00,,---,0.00,VWS V14.01,2013-03-04 13:24:00,
2013-03-04 08:29:00,32.9,20.2,30.05,NNW,329,12.0,16.0,59,0.00,,---,0.00,VWS V14.01,2013-03-04 13:29:00,
2013-03-04 08:34:00,33.3,20.1,30.05,NNW,347,14.0,15.0,58,0.00,,---,0.00,VWS V14.01,2013-03-04 13:34:00,
2013-03-04 08:39:00,33.8,20.6,30.05,North,349,10.0,10.0,58,0.00,,---,0.00,VWS V14.01,2013-03-04 13:39:00,
2013-03-04 08:44:00,34.1,20.5,30.05,NNW,340,8.0,14.0,57,0.00,,---,0.00,VWS V14.01,2013-03-04 13:44:00,
2013-03-04 08:49:00,34.0,20.0,30.05,NNW,332,8.0,16.0,56,0.00,,---,0.00,VWS V14.01,2013-03-04 13:49:00,
2013-03-04 08:54:00,34.5,20.0,30.05,North,355,5.0,14.0,55,0.00,,---,0.00,VWS V14.01,2013-03-04 13:54:00,
2013-03-04 08:59:00,35.2,20.2,30.05,NNW,335,7.0,11.0,54,0.00,,---,0.00,VWS V14.01,2013-03-04 13:59:00,
2013-03-04 09:04:00,35.3,19.9,30.05,NNW,330,12.0,14.0,53,0.00,,---,0.00,VWS V14.01,2013-03-04 14:04:00,
2013-03-04 09:09:00,35.3,19.0,30.05,NW,306,9.0,12.0,51,0.00,,---,0.00,VWS V14.01,2013-03-04 14:09:00,
2013-03-04 09:14:00,35.6,19.3,30.05,NNW,338,11.0,13.0,51,0.00,,---,0.00,VWS V14.01,2013-03-04 14:14:00,
2013-03-04 09:19:00,35.6,18.8,30.06,NNW,329,2.0,15.0,50,0.00,,---,0.00,VWS V14.01,2013-03-04 14:19:00,
2013-03-04 09:24:00,36.2,20.3,30.06,NNW,331,14.0,14.0,52,0.00,,---,0.00,VWS V14.01,2013-03-04 14:24:00,
2013-03-04 09:29:00,36.0,19.6,30.06,NW,305,12.0,15.0,51,0.00,,---,0.00,VWS V14.01,2013-03-04 14:29:00,
2013-03-04 09:34:00,36.4,20.5,30.06,NW,313,4.0,14.0,52,0.00,,---,0.00,VWS V14.01,2013-03-04 14:34:00,
2013-03-04 09:39:00,36.5,20.1,30.06,NNW,327,9.0,13.0,51,0.00,,---,0.00,VWS V14.01,2013-03-04 14:39:00,
2013-03-04 09:44:00,36.2,19.4,30.06,WNW,291,14.0,16.0,50,0.00,,---,0.00,VWS V14.01,2013-03-04 14:44:00,
2013-03-04 09:49:00,36.3,19.5,30.06,NW,323,11.0,17.0,50,0.00,,---,0.00,VWS V14.01,2013-03-04 14:49:00,
2013-03-04 09:54:00,36.2,19.4,30.06,WNW,303,9.0,16.0,50,0.00,,---,0.00,VWS V14.01,2013-03-04 14:54:00,
2013-03-04 09:59:00,36.6,19.3,30.06,WNW,288,13.0,16.0,49,0.00,,---,0.00,VWS V14.01,2013-03-04 14:59:00,
2013-03-04 10:04:00,36.5,19.2,30.06,NW,317,7.0,18.0,49,0.00,,---,0.00,VWS V14.01,2013-03-04 15:04:00,
2013-03-04 10:09:00,36.8,19.0,30.06,NW,309,12.0,18.0,48,0.00,,---,0.00,VWS V14.01,2013-03-04 15:09:00,
2013-03-04 10:14:00,37.1,19.2,30.06,NW,324,10.0,15.0,48,0.00,,---,0.00,VWS V14.01,2013-03-04 15:14:00,
2013-03-04 10:19:00,37.1,18.8,30.06,NNW,339,12.0,16.0,47,0.00,,---,0.00,VWS V14.01,2013-03-04 15:19:00,
2013-03-04 10:24:00,37.3,18.4,30.06,NNW,327,9.0,14.0,46,0.00,,---,0.00,VWS V14.01,2013-03-04 15:24:00,
2013-03-04 10:29:00,37.4,18.5,30.06,NNW,329,8.0,16.0,46,0.00,,---,0.00,VWS V14.01,2013-03-04 15:29:00,
2013-03-04 10:34:00,37.7,18.3,30.05,NNW,344,14.0,14.0,45,0.00,,---,0.00,VWS V14.01,2013-03-04 15:34:00,
2013-03-04 10:39:00,37.8,18.4,30.05,North,5,8.0,12.0,45,0.00,,---,0.00,VWS V14.01,2013-03-04 15:39:00,
2013-03-04 10:44:00,37.8,17.9,30.05,NNW,346,9.0,13.0,44,0.00,,---,0.00,VWS V14.01,2013-03-04 15:44:00,
2013-03-04 10:49:00,37.9,18.5,30.05,NW,325,11.0,16.0,45,0.00,,---,0.00,VWS V14.01,2013-03-04 15:49:00,
2013-03-04 10:54:00,38.2,18.8,30.05,NNW,340,9.0,15.0,45,0.00,,---,0.00,VWS V14.01,2013-03-04 15:54:00,
2013-03-04 10:59:00,38.3,18.3,30.05,NW,305,13.0,15.0,44,0.00,,---,0.00,VWS V14.01,2013-03-04 15:59:00,
2013-03-04 11:04:00,38.6,18.0,30.05,WNW,293,7.0,16.0,43,0.00,,---,0.00,VWS V14.01,2013-03-04 16:04:00,
2013-03-04 11:09:00,38.9,18.9,30.05,NNW,340,8.0,14.0,44,0.00,,---,0.00,VWS V14.01,2013-03-04 16:09:00,
2013-03-04 11:14:00,38.9,17.8,30.05,WNW,294,9.0,18.0,42,0.00,,---,0.00,VWS V14.01,2013-03-04 16:14:00,
2013-03-04 11:19:00,38.9,18.3,30.05,NW,321,10.0,16.0,43,0.00,,---,0.00,VWS V14.01,2013-03-04 16:19:00,
2013-03-04 11:24:00,39.3,18.7,30.05,WNW,292,11.0,11.0,43,0.00,,---,0.00,VWS V14.01,2013-03-04 16:24:00,
2013-03-04 11:29:00,39.1,17.4,30.05,North,349,8.0,11.0,41,0.00,,---,0.00,VWS V14.01,2013-03-04 16:29:00,
2013-03-04 11:34:00,39.3,18.1,30.05,North,350,9.0,14.0,42,0.00,,---,0.00,VWS V14.01,2013-03-04 16:34:00,
2013-03-04 11:39:00,39.9,18.7,30.05,NNW,332,9.0,10.0,42,0.00,,---,0.00,VWS V14.01,2013-03-04 16:39:00,
2013-03-04 11:44:00,39.5,17.2,30.04,WNW,290,6.0,13.0,40,0.00,,---,0.00,VWS V14.01,2013-03-04 16:44:00,
2013-03-04 11:49:00,39.8,18.0,30.04,WNW,299,6.0,12.0,41,0.00,,---,0.00,VWS V14.01,2013-03-04 16:49:00,
2013-03-04 11:54:00,40.0,17.6,30.03,NNW,336,9.0,13.0,40,0.00,,---,0.00,VWS V14.01,2013-03-04 16:54:00,
2013-03-04 11:59:00,40.4,19.7,30.03,NW,306,6.0,9.0,43,0.00,,---,0.00,VWS V14.01,2013-03-04 16:59:00,
2013-03-04 12:04:00,40.9,18.5,30.03,NNW,328,11.0,14.0,40,0.00,,---,0.00,VWS V14.01,2013-03-04 17:04:00,
2013-03-04 12:09:00,40.6,17.6,30.03,NW,315,13.0,14.0,39,0.00,,---,0.00,VWS V14.01,2013-03-04 17:09:00,
2013-03-04 12:14:00,40.7,18.3,30.03,North,355,9.0,16.0,40,0.00,,---,0.00,VWS V14.01,2013-03-04 17:14:00,
2013-03-04 12:19:00,40.8,17.8,30.03,WNW,298,16.0,16.0,39,0.00,,---,0.00,VWS V14.01,2013-03-04 17:19:00,
2013-03-04 12:24:00,40.9,17.9,30.03,NW,325,6.0,17.0,39,0.00,,---,0.00,VWS V14.01,2013-03-04 17:24:00,
2013-03-04 12:29:00,41.3,17.6,30.03,NNW,342,10.0,15.0,38,0.00,,---,0.00,VWS V14.01,2013-03-04 17:29:00,
2013-03-04 12:34:00,41.4,18.3,30.02,NW,315,8.0,14.0,39,0.00,,---,0.00,VWS V14.01,2013-03-04 17:34:00,
2013-03-04 12:39:00,41.8,18.7,30.03,NW,309,10.0,14.0,39,0.00,,---,0.00,VWS V14.01,2013-03-04 17:39:00,
2013-03-04 12:44:00,41.6,17.9,30.02,NW,325,13.0,17.0,38,0.00,,---,0.00,VWS V14.01,2013-03-04 17:44:00,
2013-03-04 12:49:00,41.9,17.5,30.02,North,360,11.0,18.0,37,0.00,,---,0.00,VWS V14.01,2013-03-04 17:49:00,
2013-03-04 12:54:00,42.1,18.3,30.02,NW,324,11.0,15.0,38,0.00,,---,0.00,VWS V14.01,2013-03-04 17:54:00,
2013-03-04 12:59:00,42.0,17.6,30.01,NW,304,13.0,18.0,37,0.00,,---,0.00,VWS V14.01,2013-03-04 17:59:00,
2013-03-04 13:04:00,42.4,18.6,30.01,NW,315,15.0,15.0,38,0.00,,---,0.00,VWS V14.01,2013-03-04 18:04:00,
2013-03-04 13:09:00,42.7,18.3,30.01,NW,323,9.0,13.0,37,0.00,,---,0.00,VWS V14.01,2013-03-04 18:09:00,
2013-03-04 13:14:00,43.0,18.5,30.01,NW,326,5.0,11.0,37,0.00,,---,0.00,VWS V14.01,2013-03-04 18:14:00,
2013-03-04 13:19:00,43.0,17.9,30.01,North,5,8.0,17.0,36,0.00,,---,0.00,VWS V14.01,2013-03-04 18:19:00,
2013-03-04 13:24:00,42.9,19.1,30.00,NNW,347,8.0,16.0,38,0.00,,---,0.00,VWS V14.01,2013-03-04 18:24:00,
2013-03-04 13:29:00,43.4,18.9,30.00,North,360,13.0,15.0,37,0.00,,---,0.00,VWS V14.01,2013-03-04 18:29:00,
2013-03-04 13:34:00,43.4,18.2,30.00,North,360,10.0,15.0,36,0.00,,---,0.00,VWS V14.01,2013-03-04 18:34:00,
2013-03-04 13:39:00,43.5,18.3,30.00,NW,321,9.0,17.0,36,0.00,,---,0.00,VWS V14.01,2013-03-04 18:39:00,
2013-03-04 13:44:00,43.7,19.1,30.00,North,355,11.0,16.0,37,0.00,,---,0.00,VWS V14.01,2013-03-04 18:44:00,
2013-03-04 13:49:00,43.9,18.7,30.00,NNW,344,16.0,16.0,36,0.00,,---,0.00,VWS V14.01,2013-03-04 18:49:00,
2013-03-04 13:54:00,43.7,18.5,30.00,North,355,8.0,16.0,36,0.00,,---,0.00,VWS V14.01,2013-03-04 18:54:00,
2013-03-04 13:59:00,44.0,18.8,30.00,NNW,342,6.0,13.0,36,0.00,,---,0.00,VWS V14.01,2013-03-04 18:59:00,
2013-03-04 14:04:00,44.3,19.0,30.00,NNW,340,10.0,10.0,36,0.00,,---,0.00,VWS V14.01,2013-03-04 19:04:00,
2013-03-04 14:09:00,44.7,18.8,30.00,NW,314,9.0,16.0,35,0.00,,---,0.00,VWS V14.01,2013-03-04 19:09:00,
2013-03-04 14:14:00,44.8,18.8,30.00,NW,315,9.0,13.0,35,0.00,,---,0.00,VWS V14.01,2013-03-04 19:14:00,
2013-03-04 14:19:00,45.4,20.0,30.00,NW,316,14.0,15.0,36,0.00,,---,0.00,VWS V14.01,2013-03-04 19:19:00,
2013-03-04 14:24:00,45.2,19.2,30.00,NW,317,4.0,13.0,35,0.00,,---,0.00,VWS V14.01,2013-03-04 19:24:00,
2013-03-04 14:29:00,45.2,19.2,30.00,WNW,294,11.0,12.0,35,0.00,,---,0.00,VWS V14.01,2013-03-04 19:29:00,
2013-03-04 14:34:00,45.2,19.9,30.00,WNW,287,8.0,9.0,36,0.00,,---,0.00,VWS V14.01,2013-03-04 19:34:00,
2013-03-04 14:39:00,45.8,19.7,30.00,NW,314,11.0,13.0,35,0.00,,---,0.00,VWS V14.01,2013-03-04 19:39:00,
2013-03-04 14:44:00,45.8,19.7,30.00,NW,319,9.0,12.0,35,0.00,,---,0.00,VWS V14.01,2013-03-04 19:44:00,
2013-03-04 14:49:00,46.1,20.0,30.00,North,355,10.0,13.0,35,0.00,,---,0.00,VWS V14.01,2013-03-04 19:49:00,
2013-03-04 14:54:00,45.8,19.0,30.00,NW,325,4.0,14.0,34,0.00,,---,0.00,VWS V14.01,2013-03-04 19:54:00,
2013-03-04 14:59:00,45.7,19.6,30.00,NNW,328,6.0,10.0,35,0.00,,---,0.00,VWS V14.01,2013-03-04 19:59:00,
2013-03-04 15:04:00,46.0,19.2,30.00,WNW,287,7.0,14.0,34,0.00,,---,0.00,VWS V14.01,2013-03-04 20:04:00,
2013-03-04 15:09:00,46.1,19.3,30.00,NNW,332,12.0,16.0,34,0.00,,---,0.00,VWS V14.01,2013-03-04 20:09:00,
2013-03-04 15:14:00,46.2,19.4,30.00,NNW,336,10.0,11.0,34,0.00,,---,0.00,VWS V14.01,2013-03-04 20:14:00,
2013-03-04 15:19:00,46.6,19.8,29.99,WNW,302,14.0,14.0,34,0.00,,---,0.00,VWS V14.01,2013-03-04 20:19:00,
2013-03-04 15:24:00,46.4,19.6,29.99,NW,305,7.0,13.0,34,0.00,,---,0.00,VWS V14.01,2013-03-04 20:24:00,
2013-03-04 15:29:00,46.7,19.8,29.99,West,281,9.0,12.0,34,0.00,,---,0.00,VWS V14.01,2013-03-04 20:29:00,
2013-03-04 15:34:00,47.1,20.9,29.99,WNW,288,17.0,17.0,35,0.00,,---,0.00,VWS V14.01,2013-03-04 20:34:00,
2013-03-04 15:39:00,46.9,19.3,29.99,WNW,289,8.0,12.0,33,0.00,,---,0.00,VWS V14.01,2013-03-04 20:39:00,
2013-03-04 15:44:00,47.2,20.3,29.99,WNW,282,7.0,10.0,34,0.00,,---,0.00,VWS V14.01,2013-03-04 20:44:00,
2013-03-04 15:49:00,47.4,19.0,29.99,NNW,332,7.0,12.0,32,0.00,,---,0.00,VWS V14.01,2013-03-04 20:49:00,
2013-03-04 15:54:00,47.2,19.6,29.99,NW,311,9.0,12.0,33,0.00,,---,0.00,VWS V14.01,2013-03-04 20:54:00,
2013-03-04 15:59:00,47.1,18.8,29.99,WNW,298,12.0,12.0,32,0.00,,---,0.00,VWS V14.01,2013-03-04 20:59:00,
2013-03-04 16:04:00,47.2,20.3,29.99,NW,315,7.0,12.0,34,0.00,,---,0.00,VWS V14.01,2013-03-04 21:04:00,
2013-03-04 16:09:00,47.5,20.5,29.99,WNW,283,14.0,14.0,34,0.00,,---,0.00,VWS V14.01,2013-03-04 21:09:00,
2013-03-04 16:14:00,47.4,19.8,29.99,WNW,287,9.0,12.0,33,0.00,,---,0.00,VWS V14.01,2013-03-04 21:14:00,
2013-03-04 16:19:00,47.3,19.7,29.99,West,265,10.0,14.0,33,0.00,,---,0.00,VWS V14.01,2013-03-04 21:19:00,
2013-03-04 16:24:00,47.5,20.5,29.99,WNW,292,5.0,13.0,34,0.00,,---,0.00,VWS V14.01,2013-03-04 21:24:00,
2013-03-04 16:29:00,47.7,20.0,29.99,WNW,293,13.0,19.0,33,0.00,,---,0.00,VWS V14.01,2013-03-04 21:29:00,
2013-03-04 16:34:00,47.5,19.1,29.99,WNW,292,11.0,14.0,32,0.00,,---,0.00,VWS V14.01,2013-03-04 21:34:00,
2013-03-04 16:39:00,47.4,19.0,29.99,NW,308,12.0,15.0,32,0.00,,---,0.00,VWS V14.01,2013-03-04 21:39:00,
2013-03-04 16:44:00,47.4,19.8,29.99,NW,306,9.0,11.0,33,0.00,,---,0.00,VWS V14.01,2013-03-04 21:44:00,
2013-03-04 16:49:00,47.5,19.9,29.99,NW,322,9.0,13.0,33,0.00,,---,0.00,VWS V14.01,2013-03-04 21:49:00,
2013-03-04 16:54:00,47.5,19.9,30.00,WNW,288,11.0,11.0,33,0.00,,---,0.00,VWS V14.01,2013-03-04 21:54:00,
2013-03-04 16:59:00,47.5,19.9,30.00,NW,308,12.0,12.0,33,0.00,,---,0.00,VWS V14.01,2013-03-04 21:59:00,
2013-03-04 17:04:00,47.4,19.8,30.00,NW,304,8.0,13.0,33,0.00,,---,0.00,VWS V14.01,2013-03-04 22:04:00,
2013-03-04 17:09:00,47.4,20.5,30.00,NW,317,6.0,11.0,34,0.00,,---,0.00,VWS V14.01,2013-03-04 22:09:00,
2013-03-04 17:14:00,47.3,20.4,30.00,NW,315,8.0,9.0,34,0.00,,---,0.00,VWS V14.01,2013-03-04 22:14:00,
2013-03-04 17:19:00,47.2,20.3,30.00,West,281,6.0,10.0,34,0.00,,---,0.00,VWS V14.01,2013-03-04 22:19:00,
2013-03-04 17:24:00,47.2,21.0,30.00,WNW,295,8.0,11.0,35,0.00,,---,0.00,VWS V14.01,2013-03-04 22:24:00,
2013-03-04 17:29:00,47.1,20.2,30.00,West,279,7.0,11.0,34,0.00,,---,0.00,VWS V14.01,2013-03-04 22:29:00,
2013-03-04 17:34:00,47.0,20.1,30.01,NW,305,9.0,10.0,34,0.00,,---,0.00,VWS V14.01,2013-03-04 22:34:00,
2013-03-04 17:39:00,47.0,20.1,30.01,WNW,286,7.0,12.0,34,0.00,,---,0.00,VWS V14.01,2013-03-04 22:39:00,
2013-03-04 17:44:00,46.9,21.4,30.01,WNW,286,8.0,8.0,36,0.00,,---,0.00,VWS V14.01,2013-03-04 22:44:00,
2013-03-04 17:49:00,46.8,21.3,30.01,WNW,298,4.0,8.0,36,0.00,,---,0.00,VWS V14.01,2013-03-04 22:49:00,
2013-03-04 17:54:00,46.7,21.2,30.01,NW,310,7.0,9.0,36,0.00,,---,0.00,VWS V14.01,2013-03-04 22:54:00,
2013-03-04 17:59:00,46.5,21.6,30.01,WNW,303,7.0,7.0,37,0.00,,---,0.00,VWS V14.01,2013-03-04 22:59:00,
2013-03-04 18:04:00,46.4,21.6,30.02,NW,309,6.0,7.0,37,0.00,,---,0.00,VWS V14.01,2013-03-04 23:04:00,
2013-03-04 18:09:00,46.2,22.0,30.02,NW,304,5.0,6.0,38,0.00,,---,0.00,VWS V14.01,2013-03-04 23:09:00,
2013-03-04 18:14:00,46.0,21.8,30.02,WNW,302,4.0,7.0,38,0.00,,---,0.00,VWS V14.01,2013-03-04 23:14:00,
2013-03-04 18:19:00,45.8,22.3,30.02,WNW,298,3.0,5.0,39,0.00,,---,0.00,VWS V14.01,2013-03-04 23:19:00,
2013-03-04 18:24:00,45.6,22.7,30.02,WNW,302,3.0,7.0,40,0.00,,---,0.00,VWS V14.01,2013-03-04 23:24:00,
2013-03-04 18:29:00,45.4,23.1,30.03,WNW,301,4.0,6.0,41,0.00,,---,0.00,VWS V14.01,2013-03-04 23:29:00,
2013-03-04 18:34:00,45.3,23.6,30.03,WNW,302,5.0,5.0,42,0.00,,---,0.00,VWS V14.01,2013-03-04 23:34:00,
2013-03-04 18:39:00,45.1,23.4,30.04,WNW,302,3.0,6.0,42,0.00,,---,0.00,VWS V14.01,2013-03-04 23:39:00,
2013-03-04 18:44:00,44.9,23.8,30.04,WNW,302,4.0,5.0,43,0.00,,---,0.00,VWS V14.01,2013-03-04 23:44:00,
2013-03-04 18:49:00,44.7,23.6,30.04,WNW,302,4.0,4.0,43,0.00,,---,0.00,VWS V14.01,2013-03-04 23:49:00,
2013-03-04 18:54:00,44.6,23.5,30.04,WNW,302,3.0,3.0,43,0.00,,---,0.00,VWS V14.01,2013-03-04 23:54:00,
2013-03-04 18:59:00,44.6,24.0,30.04,WNW,302,3.0,4.0,44,0.00,,---,0.00,VWS V14.01,2013-03-04 23:59:00,
2013-03-04 19:04:00,44.6,24.6,30.04,NW,321,3.0,4.0,45,0.00,,---,0.00,VWS V14.01,2013-03-05 00:04:00,
2013-03-04 19:09:00,44.6,24.6,30.04,NW,326,4.0,4.0,45,0.00,,---,0.00,VWS V14.01,2013-03-05 00:09:00,
2013-03-04 19:14:00,44.6,24.6,30.04,NW,326,2.0,3.0,45,0.00,,---,0.00,VWS V14.01,2013-03-05 00:14:00,
2013-03-04 19:19:00,44.6,25.1,30.04,NW,326,2.0,3.0,46,0.00,,---,0.00,VWS V14.01,2013-03-05 00:19:00,
2013-03-04 19:24:00,44.5,25.0,30.04,NW,326,3.0,3.0,46,0.00,,---,0.00,VWS V14.01,2013-03-05 00:24:00,
2013-03-04 19:29:00,44.5,25.0,30.05,NW,325,4.0,5.0,46,0.00,,---,0.00,VWS V14.01,2013-03-05 00:29:00,
2013-03-04 19:34:00,44.4,24.9,30.05,NW,325,3.0,4.0,46,0.00,,---,0.00,VWS V14.01,2013-03-05 00:34:00,
2013-03-04 19:39:00,44.3,25.4,30.04,NW,325,3.0,4.0,47,0.00,,---,0.00,VWS V14.01,2013-03-05 00:39:00,
2013-03-04 19:44:00,44.2,25.3,30.04,NW,325,2.0,2.0,47,0.00,,---,0.00,VWS V14.01,2013-03-05 00:44:00,
2013-03-04 19:49:00,43.9,25.5,30.05,NW,325,2.0,2.0,48,0.00,,---,0.00,VWS V14.01,2013-03-05 00:49:00,
2013-03-04 19:54:00,43.7,25.3,30.05,NW,325,2.0,2.0,48,0.00,,---,0.00,VWS V14.01,2013-03-05 00:54:00,
2013-03-04 19:59:00,43.7,25.8,30.05,NW,325,1.0,2.0,49,0.00,,---,0.00,VWS V14.01,2013-03-05 00:59:00,
2013-03-04 20:04:00,43.5,25.6,30.05,NW,325,2.0,2.0,49,0.00,,---,0.00,VWS V14.01,2013-03-05 01:04:00,
2013-03-04 20:09:00,43.3,24.9,30.05,NW,322,1.0,2.0,48,0.00,,---,0.00,VWS V14.01,2013-03-05 01:09:00,
2013-03-04 20:14:00,43.0,25.2,30.05,NW,322,3.0,3.0,49,0.00,,---,0.00,VWS V14.01,2013-03-05 01:14:00,
2013-03-04 20:19:00,42.8,25.0,30.05,NW,322,2.0,3.0,49,0.00,,---,0.00,VWS V14.01,2013-03-05 01:19:00,
2013-03-04 20:24:00,42.8,25.5,30.06,NW,322,3.0,4.0,50,0.00,,---,0.00,VWS V14.01,2013-03-05 01:24:00,
2013-03-04 20:29:00,42.9,26.0,30.06,NW,322,2.0,3.0,51,0.00,,---,0.00,VWS V14.01,2013-03-05 01:29:00,
2013-03-04 20:34:00,42.8,26.4,30.06,NW,322,2.0,3.0,52,0.00,,---,0.00,VWS V14.01,2013-03-05 01:34:00,
2013-03-04 20:39:00,42.5,25.2,30.06,NW,322,3.0,3.0,50,0.00,,---,0.00,VWS V14.01,2013-03-05 01:39:00,
2013-03-04 20:44:00,42.6,24.8,30.06,NW,320,4.0,4.0,49,0.00,,---,0.00,VWS V14.01,2013-03-05 01:44:00,
2013-03-04 20:49:00,42.8,23.5,30.06,NW,319,4.0,4.0,46,0.00,,---,0.00,VWS V14.01,2013-03-05 01:49:00,
2013-03-04 20:54:00,43.2,23.3,30.06,WNW,286,4.0,4.0,45,0.00,,---,0.00,VWS V14.01,2013-03-05 01:54:00,
2013-03-04 20:59:00,43.2,22.2,30.06,WNW,286,3.0,4.0,43,0.00,,---,0.00,VWS V14.01,2013-03-05 01:59:00,
2013-03-04 21:04:00,43.3,23.4,30.06,WNW,286,3.0,3.0,45,0.00,,---,0.00,VWS V14.01,2013-03-05 02:04:00,
2013-03-04 21:09:00,43.4,23.5,30.06,WNW,286,4.0,4.0,45,0.00,,---,0.00,VWS V14.01,2013-03-05 02:09:00,
2013-03-04 21:14:00,43.2,24.4,30.07,WNW,285,3.0,4.0,47,0.00,,---,0.00,VWS V14.01,2013-03-05 02:14:00,
2013-03-04 21:19:00,42.9,23.6,30.07,WNW,284,4.0,5.0,46,0.00,,---,0.00,VWS V14.01,2013-03-05 02:19:00,
2013-03-04 21:24:00,42.5,22.7,30.07,WNW,283,4.0,4.0,45,0.00,,---,0.00,VWS V14.01,2013-03-05 02:24:00,
2013-03-04 21:29:00,42.4,22.0,30.07,West,277,3.0,4.0,44,0.00,,---,0.00,VWS V14.01,2013-03-05 02:29:00,
2013-03-04 21:34:00,42.4,22.0,30.07,West,277,3.0,4.0,44,0.00,,---,0.00,VWS V14.01,2013-03-05 02:34:00,
2013-03-04 21:39:00,42.4,21.5,30.07,West,277,3.0,4.0,43,0.00,,---,0.00,VWS V14.01,2013-03-05 02:39:00,
2013-03-04 21:44:00,42.5,21.6,30.07,West,277,4.0,5.0,43,0.00,,---,0.00,VWS V14.01,2013-03-05 02:44:00,
2013-03-04 21:49:00,42.5,22.1,30.07,West,277,3.0,4.0,44,0.00,,---,0.00,VWS V14.01,2013-03-05 02:49:00,
2013-03-04 21:54:00,42.5,23.2,30.08,West,277,5.0,5.0,46,0.00,,---,0.00,VWS V14.01,2013-03-05 02:54:00,
2013-03-04 21:59:00,42.5,22.7,30.08,West,277,4.0,5.0,45,0.00,,---,0.00,VWS V14.01,2013-03-05 02:59:00,
2013-03-04 22:04:00,42.4,22.6,30.08,West,277,4.0,4.0,45,0.00,,---,0.00,VWS V14.01,2013-03-05 03:04:00,
2013-03-04 22:09:00,42.4,22.6,30.08,West,277,5.0,5.0,45,0.00,,---,0.00,VWS V14.01,2013-03-05 03:09:00,
2013-03-04 22:14:00,42.5,24.2,30.08,West,276,5.0,6.0,48,0.00,,---,0.00,VWS V14.01,2013-03-05 03:14:00,
2013-03-04 22:19:00,42.7,25.9,30.08,West,279,5.0,6.0,51,0.00,,---,0.00,VWS V14.01,2013-03-05 03:19:00,
2013-03-04 22:24:00,42.7,26.8,30.08,West,280,7.0,8.0,53,0.00,,---,0.00,VWS V14.01,2013-03-05 03:24:00,
2013-03-04 22:29:00,42.5,27.0,30.08,West,279,5.0,7.0,54,0.00,,---,0.00,VWS V14.01,2013-03-05 03:29:00,
2013-03-04 22:34:00,42.7,26.3,30.08,WNW,282,6.0,7.0,52,0.00,,---,0.00,VWS V14.01,2013-03-05 03:34:00,
2013-03-04 22:39:00,42.7,26.3,30.08,WNW,283,6.0,7.0,52,0.00,,---,0.00,VWS V14.01,2013-03-05 03:39:00,
2013-03-04 22:44:00,42.7,26.8,30.08,WNW,283,5.0,7.0,53,0.00,,---,0.00,VWS V14.01,2013-03-05 03:44:00,
2013-03-04 22:49:00,42.6,27.1,30.08,WNW,282,6.0,6.0,54,0.00,,---,0.00,VWS V14.01,2013-03-05 03:49:00,
2013-03-04 22:54:00,42.7,25.4,30.08,West,280,6.0,6.0,50,0.00,,---,0.00,VWS V14.01,2013-03-05 03:54:00,
2013-03-04 22:59:00,42.7,24.4,30.08,West,275,7.0,7.0,48,0.00,,---,0.00,VWS V14.01,2013-03-05 03:59:00,
2013-03-04 23:04:00,42.9,25.1,30.08,West,278,7.0,8.0,49,0.00,,---,0.00,VWS V14.01,2013-03-05 04:04:00,
2013-03-04 23:09:00,43.1,25.3,30.08,West,269,7.0,7.0,49,0.00,,---,0.00,VWS V14.01,2013-03-05 04:09:00,
2013-03-04 23:14:00,43.3,25.4,30.08,West,274,6.0,7.0,49,0.00,,---,0.00,VWS V14.01,2013-03-05 04:14:00,
2013-03-04 23:19:00,43.4,26.0,30.08,West,275,6.0,8.0,50,0.00,,---,0.00,VWS V14.01,2013-03-05 04:19:00,
2013-03-04 23:24:00,43.6,25.2,30.08,West,271,8.0,8.0,48,0.00,,---,0.00,VWS V14.01,2013-03-05 04:24:00,
2013-03-04 23:29:00,43.7,24.8,30.08,West,280,7.0,8.0,47,0.00,,---,0.00,VWS V14.01,2013-03-05 04:29:00,
2013-03-04 23:34:00,43.5,25.1,30.08,West,277,7.0,8.0,48,0.00,,---,0.00,VWS V14.01,2013-03-05 04:34:00,
2013-03-04 23:39:00,43.4,25.5,30.08,WNW,285,8.0,8.0,49,0.00,,---,0.00,VWS V14.01,2013-03-05 04:39:00,
2013-03-04 23:44:00,43.6,23.7,30.07,WNW,284,7.0,9.0,45,0.00,,---,0.00,VWS V14.01,2013-03-05 04:44:00,
2013-03-04 23:49:00,43.6,23.1,30.07,WNW,284,7.0,9.0,44,0.00,,---,0.00,VWS V14.01,2013-03-05 04:49:00,
2013-03-04 23:54:00,43.0,23.6,30.07,WNW,288,6.0,8.0,46,0.00,,---,0.00,VWS V14.01,2013-03-05 04:54:00,
2013-03-04 23:59:00,42.5,23.7,30.07,WNW,288,7.0,7.0,47,0.00,,---,0.00,VWS V14.01,2013-03-05 04:59:00,